This is the latest recevied weather packets stored in our database for station/object FW7644. If no packets are shown the sender has not sent any weather packets the latest 10 day(s).
| Time | Temp. | Humidity | Pressure | Rain* | Wind** | Luminosity | Snow |
|---|---|---|---|---|---|---|---|
| 1777508802 | 14.44° C | 99% | 1018.5 hPa | 4.83 mm | - | - | - |
| 1777508500 | 14.44° C | 99% | 1019 hPa | 4.57 mm | - | - | - |
| 1777508198 | 14.44° C | 99% | 1018.5 hPa | 6.1 mm | - | - | - |
| 1777507896 | 14.44° C | 99% | 1018.1 hPa | 5.59 mm | - | - | - |
| 1777507594 | 14.44° C | 99% | 1018.3 hPa | 7.11 mm | - | - | - |
| 1777507293 | 14.44° C | 99% | 1018.8 hPa | 6.6 mm | - | - | - |
| 1777506990 | 14.44° C | 99% | 1019 hPa | 6.35 mm | - | - | - |
| 1777506689 | 14.44° C | 99% | 1018.9 hPa | 5.84 mm | - | - | - |
| 1777506386 | 14.44° C | 99% | 1019 hPa | 6.86 mm | - | - | - |
| 1777506084 | 14.44° C | 99% | 1018.9 hPa | 6.35 mm | - | - | - |
| 1777505783 | 14.44° C | 99% | 1018.8 hPa | 6.35 mm | - | - | - |
| 1777505480 | 14.44° C | 99% | 1018.7 hPa | 5.84 mm | - | - | - |
| 1777505179 | 14.44° C | 99% | 1018.6 hPa | 6.1 mm | - | - | - |
| 1777504877 | 14.44° C | 99% | 1019 hPa | 5.84 mm | - | - | - |
| 1777504576 | 14.44° C | 99% | 1019.1 hPa | 5.33 mm | - | - | - |
| 1777504275 | 14.44° C | 99% | 1019.4 hPa | 4.57 mm | - | - | - |
| 1777503973 | 14.44° C | 99% | 1019.5 hPa | 4.06 mm | - | - | - |
| 1777503671 | 14.44° C | 99% | 1019.5 hPa | 3.05 mm | - | - | - |
| 1777503370 | 14.44° C | 99% | 1019.3 hPa | 3.56 mm | - | - | - |
| 1777503068 | 14.44° C | 99% | 1019 hPa | 3.56 mm | - | - | - |
| 1777502766 | 14.44° C | 99% | 1019 hPa | 3.56 mm | - | - | - |
| 1777502465 | 15° C | 99% | 1019 hPa | 3.05 mm | - | - | - |
| 1777502163 | 14.44° C | 99% | 1018.5 hPa | 3.81 mm | - | - | - |
| 1777501862 | 14.44° C | 99% | 1018.4 hPa | 3.56 mm | - | - | - |
| 1777501560 | 14.44° C | 99% | 1018.4 hPa | 4.06 mm | - | - | - |
* Rain latest hour (hover to see other rain measurements)
** Current wind speed in m/s (hover to see current wind gust speed)